Location: Brienzwiler
(46.7508°N, 8.1014°E)
Time: 01:37:32
(UTC+00:00)

Cosmos 1500 Rocket - Pass Details

Date: 05 July 2020
Orbit: 603 x 632 km, 82.5° (Epoch: 11 August)

Event Time Altitude Azimuth Distance (km) Brightness Sun altitude
Exits shadow 23:44:49 54° 170° (S) 760 3.6 -20.5°
Maximum altitude 23:45:46 78° 97° (E) 641 3.5 -20.5°
Drops below altitude 10° 23:50:11 10° 12° (NNE) 1,991 7.3 -20.5°
Sets 23:52:24 0° 11° (N) 2,897 8.6 -20.4°
